Simultaneous Nadir Overpasses (SNOs) Predictions

Prediction of SNOs between GOES-16 and TERRA Satellite Orbit:

Table of predicted SNOs for the next 14.0 days since TLE Epoch: 5/21/2022
Index Date Time (GOES-16) GOES-16 Lat,Lon TERRA Lat,Lon Distance(km) Time Diff (sec)
1 05/21/2022 15:31:54 0.04, -75.21 0.70, -78.29 350.44 80
2 05/23/2022 15:19:37 0.04, -75.22 0.06, -75.33 12.63 80
3 05/25/2022 15:09:59 0.04, -75.23 -0.54, -72.36 326.36 80
4 05/26/2022 03:31:22 -0.04, -75.22 -0.54, -77.55 265.56 80
5 05/28/2022 03:16:24 -0.04, -75.24 0.08, -74.58 74.36 80
6 05/30/2022 03:04:06 -0.03, -75.27 0.73, -71.62 414.63 80
7 05/30/2022 15:25:20 0.03, -75.29 0.35, -76.77 168.68 80
8 06/01/2022 15:15:42 0.02, -75.32 -0.31, -73.81 172.16 80
9 06/02/2022 03:37:04 -0.02, -75.31 -0.81, -79.00 419.06 80
10 06/04/2022 03:24:45 -0.01, -75.35 -0.19, -76.02 77.59 80
